EHI
0 0 0 0 0 0 0 0 0 0 0 0 0 0 0 0 0 0 1 2 3 3 4 6 6 6 5 4 5 5 4 2 1 1 1 0 0 0 0 0 0 0 0
0 0 0 0 0 0 0 0 0 0 0 0 0 0 0 0 0 0 0 1 2 2 3 3 4 4 4 3 3 4 4 3 2 2 1 0 0 0 0 0 0 0 0
0 0 0 0 0 0 0 0 0 0 0 0 0 0 0 0 0 0 0 0 1 1 1 0 1 2 2 2 2 2 3 4 3 1 1 0 0 0 0 0 0 0 0
0 0 0 0 0 0 0 0 0 0 0 0 0 0 0 0 0 0 0 0 0 0 0 0 0 0 1 1 1 1 1 2 2 1 0 0 0 0 0 0 0 0 0
0 0 1 2 2 1 0 0 0 0 0 0 0 0 0 0 0 0 0 0 0 0 0 0 0 0 0 1 1 0 0 1 1 0 0 0 0 0 0 0 0 0 0
0 0 4 9 10 6 3 1 0 0 0 0 0 0 0 0 0 0 0 0 0 0 0 0 0 0 0 0 0 0 0 0 0 0 0 0 0 0 0 0 0 0 0
0 0 4 12 15 12 7 3 1 0 0 0 0 0 0 0 0 0 0 0 0 0 0 0 0 0 0 0 0 0 0 0 0 0 0 0 0 0 0 0 0 0 0
0 0 3 8 11 11 8 4 2 0 0 0 0 0 0 0 0 0 0 0 0 0 0 0 0 0 0 0 0 0 0 0 0 0 0 0 0 0 0 0 0 0 0
0 0 1 2 4 4 3 2 1 0 0 0 0 0 0 0 0 0 0 0 0 0 0 0 0 0 0 0 0 0 0 0 0 0 0 0 0 0 0 0 0 0 0
0 0 0 0 0 0 0 0 0 0 0 0 0 0 0 0 0 0 0 0 0 0 0 0 0 0 0 0 0 0 0 0 0 0 0 0 0 0 0 0 0 0 0
0 0 0 0 0 1 1 0 0 0 0 0 0 0 0 0 0 0 0 0 0 0 0 0 0 0 0 0 0 0 0 0 0 0 0 0 0 0 0 0 0 0 0
0 0 0 0 0 1 1 0 0 0 0 0 0 0 0 0 0 0 0 0 0 0 0 0 0 0 0 0 0 0 0 0 0 0 0 1 1 0 0 0 0 0 0
0 0 0 0 0 1 1 0 0 0 0 0 0 0 0 0 0 0 0 0 0 0 0 0 0 0 0 0 0 0 0 0 0 0 1 3 4 2 0 0 0 0 0
0 0 0 0 0 0 0 0 0 0 0 0 0 1 0 0 0 0 0 0 0 0 0 0 0 0 0 0 0 0 0 0 0 0 1 4 5 3 0 0 0 0 0
0 0 0 0 0 0 0 0 0 0 0 0 0 0 0 0 0 0 0 0 0 0 0 0 0 0 0 0 0 0 0 0 0 0 1 3 3 1 0 0 0 0 0
0 0 0 0 0 0 0 0 0 0 0 0 0 0 0 0 0 0 0 0 0 0 0 0 0 0 0 0 0 0 0 0 0 0 0 1 1 0 0 0 0 0 0
0 0 0 0 0 0 0 0 0 0 0 0 0 0 0 0 0 0 0 0 0 0 0 0 0 0 0 0 0 0 0 0 0 0 0 0 0 0 0 0 0 0 0
0 0 0 0 0 0 0 0 0 0 0 0 0 0 0 0 0 0 0 0 0 0 0 0 0 0 0 0 0 0 0 0 0 0 0 0 0 0 0 0 0 0 0
0 0 0 0 0 0 0 0 0 0 0 0 0 0 1 1 0 0 0 0 0 0 0 0 0 0 0 0 0 0 0 0 0 0 0 0 0 0 0 0 0 0 0
0 0 0 0 0 0 0 0 0 0 0 0 0 0 1 1 0 0 0 0 0 0 0 0 0 0 0 0 0 0 0 0 0 0 0 0 0 0 0 0 0 0 0
0 0 0 0 0 0 0 0 0 0 0 0 0 0 1 1 1 1 0 0 0 0 0 0 0 0 0 0 0 0 0 0 0 0 0 0 0 0 0 0 0 0 0
0 0 0 0 0 0 0 0 0 0 0 0 0 0 0 0 1 2 1 0 0 0 0 0 0 0 0 0 0 0 0 0 0 0 0 0 0 0 0 0 0 0 0
0 0 0 0 0 0 0 0 0 0 0 0 0 0 0 0 1 2 2 1 0 0 0 0 0 0 0 0 0 0 0 0 0 0 0 0 0 0 0 0 0 0 0
0 0 0 0 0 0 0 0 0 0 0 0 0 0 0 0 0 1 2 1 0 0 0 0 0 0 0 0 0 0 0 0 0 0 0 0 0 0 0 0 0 0 0
0 0 0 0 0 0 0 0 0 0 0 0 0 0 0 0 0 0 1 1 0 0 0 0 0 0 0 0 0 0 0 0 0 0 0 0 0 0 0 0 0 0 0
0 0 0 0 0 0 0 0 0 0 0 0 0 0 0 0 0 0 0 0 0 0 0 0 0 0 0 0 0 0 0 0 0 0 0 0 0 0 0 0 0 0 0
Wind_Speed
5 6 12 12 11 11 11 11 10 10 9 8 8 7 7 7 7 7 6 6 6 6 6 6 6 7 7 7 7 8 8 9 9 9 9 10 10 10 10 11 9 6 11
9 7 12 12 12 11 11 10 10 10 9 9 8 7 7 6 6 6 5 5 5 5 5 5 6 6 6 6 5 6 7 7 7 7 8 8 9 10 10 10 9 6 9
11 8 10 12 11 11 11 10 9 9 9 8 8 7 7 6 5 5 4 4 4 4 4 4 5 5 5 4 4 4 5 6 6 5 6 3 5 9 9 9 9 8 8
12 8 9 12 11 10 10 10 9 8 8 8 7 7 7 6 5 5 4 4 4 4 4 4 4 5 5 3 2 3 4 5 6 6 4 2 3 8 9 8 8 8 8
11 8 9 13 11 10 10 9 9 8 8 7 7 7 6 6 6 5 5 4 4 3 4 4 4 4 4 3 1 1 2 4 5 6 4 3 3 7 8 8 7 7 7
10 9 10 14 12 11 10 10 9 9 8 8 7 7 6 6 6 6 5 5 4 4 4 4 4 4 4 3 2 0 2 4 5 3 3 3 2 7 8 7 7 7 7
9 9 10 14 13 13 12 11 10 9 9 9 8 8 7 7 6 6 6 5 5 4 4 4 4 5 4 3 3 2 1 2 2 3 3 2 3 7 7 7 7 7 7
9 8 8 13 13 13 12 12 11 10 10 10 9 9 8 8 7 7 6 6 6 5 5 4 4 5 5 4 4 3 2 2 3 5 4 3 6 8 8 7 6 6 6
4 3 3 5 8 11 12 12 12 12 12 11 11 10 10 9 9 8 8 7 7 6 6 6 6 6 6 6 6 5 2 1 3 3 4 3 7 8 7 7 6 6 6
6 4 2 1 2 3 6 12 13 13 13 12 12 12 11 10 10 10 9 9 9 8 8 7 7 7 7 7 7 6 3 1 2 3 3 4 8 8 7 7 6 6 6
7 5 4 3 3 3 4 7 10 12 12 12 11 13 11 6 6 6 9 11 11 11 10 9 9 8 8 8 8 7 3 1 2 3 3 7 9 9 8 7 6 6 6
4 4 3 3 3 3 3 3 3 5 5 6 5 7 5 5 5 7 9 14 14 13 12 11 11 9 7 3 5 6 2 2 2 3 4 9 10 9 8 8 7 6 6
3 4 4 3 3 3 2 2 1 2 3 4 6 6 5 5 4 5 3 7 9 10 6 7 7 4 3 3 3 3 3 3 2 3 5 10 11 10 9 8 7 7 6
4 5 4 4 3 3 3 2 2 2 2 2 4 6 5 4 4 4 4 4 4 4 5 4 3 4 5 5 5 5 5 3 3 3 5 11 11 11 10 9 8 7 7
6 5 5 5 4 3 3 3 2 2 3 3 3 4 5 5 5 5 4 4 5 4 5 5 5 5 6 6 6 7 6 6 5 5 5 11 12 11 11 10 9 8 8
7 7 7 6 4 4 3 3 3 3 3 3 3 4 5 5 5 4 5 5 5 5 5 5 6 5 6 5 7 8 7 6 6 7 5 8 11 11 10 11 11 10 9
7 7 8 8 6 6 5 5 3 3 3 3 4 5 5 4 5 5 4 5 6 6 7 5 5 4 5 5 7 8 7 7 8 8 7 5 6 9 11 11 11 11 10
7 8 8 9 8 8 6 5 4 4 4 4 4 4 6 5 5 4 4 5 5 5 5 5 5 4 5 4 5 6 6 6 9 9 7 6 5 5 8 11 10 10 11
7 7 8 8 8 8 7 5 5 4 4 4 4 4 5 6 5 5 4 5 5 4 5 6 5 4 3 3 4 4 4 6 8 9 8 8 7 6 5 8 11 11 10
7 7 7 8 8 7 6 5 4 4 4 3 3 4 6 5 6 4 4 5 5 4 4 4 4 4 3 3 4 3 2 4 6 8 10 8 7 7 6 6 6 8 11
8 8 7 8 8 6 4 4 4 4 4 4 4 5 5 5 5 5 4 4 5 5 6 6 4 4 3 2 1 1 1 1 3 5 6 7 8 8 7 6 5 4 5
7 8 7 8 8 7 5 4 3 4 4 4 4 4 5 5 5 5 5 4 5 4 5 6 5 4 3 3 3 2 0 2 2 2 3 5 7 7 7 8 6 6 5
7 7 8 8 8 8 7 4 4 3 3 3 4 4 4 4 5 5 5 5 5 5 6 7 7 7 5 4 3 4 4 4 2 2 2 3 5 5 6 6 6 7 7
6 6 6 7 7 7 7 6 6 4 4 4 4 4 5 5 5 5 5 5 6 5 6 7 7 6 6 5 4 3 3 3 4 2 1 2 4 5 6 5 6 6 6
6 6 6 6 7 7 7 6 6 5 4 4 4 5 5 5 5 4 4 5 5 5 7 7 7 7 6 6 5 4 4 2 2 3 3 2 1 2 4 5 4 5 6
5 5 6 6 7 7 7 7 6 7 7 6 6 6 5 4 4 4 4 3 4 4 6 7 7 9 8 7 6 5 5 4 4 3 3 2 3 2 2 3 4 4 5
Wind_Direction
158 169 151 142 135 132 132 134 134 135 132 127 122 117 110 103 96 93 91 90 89 90 92 93 93 90 86 79 72 67 66 66 69 73 76 77 75 76 87 94 93 89 95
154 161 151 144 138 135 134 136 137 138 137 136 134 128 122 115 108 101 96 93 94 95 96 99 102 104 98 87 74 66 61 58 58 71 77 77 80 80 88 96 95 96 97
146 153 150 147 142 138 137 139 140 141 142 143 142 140 136 131 125 117 108 103 104 107 107 111 118 118 113 100 80 61 48 41 40 71 97 82 82 85 89 94 96 98 100
146 150 152 150 146 143 142 142 143 146 148 150 151 151 150 148 145 142 134 126 123 124 126 129 137 136 130 120 92 58 38 31 35 76 104 93 83 90 89 90 92 97 99
148 153 157 155 153 151 150 150 152 155 157 160 162 163 164 164 162 159 155 149 146 145 148 148 151 155 152 146 137 52 24 25 48 85 101 93 84 94 91 92 93 97 99
154 157 163 162 162 162 161 162 164 167 170 173 175 177 179 179 177 173 170 167 164 165 167 169 171 173 174 177 193 280 1 27 65 97 119 114 102 99 96 95 93 95 97
156 163 170 170 171 172 173 174 177 180 182 184 186 188 190 191 189 185 183 180 178 180 183 185 193 193 195 202 221 257 330 2 104 127 129 122 113 105 101 97 95 93 94
157 165 178 181 181 183 184 186 189 192 194 196 196 197 199 200 199 198 196 193 190 192 196 199 207 209 208 215 232 250 280 353 89 136 139 144 131 116 108 105 102 97 93
116 137 176 194 195 198 198 199 200 201 202 205 205 205 206 207 207 208 207 205 202 202 205 209 215 218 219 225 235 245 256 70 108 146 155 156 141 127 119 114 108 105 101
54 46 31 344 257 235 224 216 214 213 211 211 211 211 212 214 214 215 213 214 212 211 212 214 219 223 226 231 236 243 248 92 139 174 163 168 151 139 132 126 120 116 109
42 34 28 17 352 318 266 239 231 228 223 219 215 215 214 214 217 221 221 219 220 218 218 218 221 225 229 236 239 242 244 151 151 165 177 175 159 151 145 140 135 127 120
25 20 23 12 355 336 310 280 247 238 234 226 215 215 209 201 209 219 226 227 225 222 221 222 225 228 231 239 250 249 223 184 176 178 195 182 168 161 155 152 148 143 135
13 9 10 358 345 340 321 312 276 254 249 238 227 219 212 205 208 219 219 233 229 224 221 226 229 228 227 228 236 238 225 204 197 194 199 187 176 170 165 162 159 157 153
13 357 348 345 336 326 322 311 292 281 270 254 242 231 218 215 213 210 214 218 212 209 208 214 218 227 233 236 237 237 232 216 205 193 197 190 181 178 175 171 168 168 169
8 354 339 331 327 320 315 302 300 284 274 267 257 239 219 217 220 216 211 212 207 200 203 212 219 224 232 238 238 234 228 220 204 190 192 193 186 185 182 179 177 176 175
2 352 342 333 330 319 304 289 278 269 270 268 255 248 232 220 221 218 213 209 209 203 207 213 220 221 228 231 236 233 223 208 200 190 188 193 191 187 185 185 183 183 182
358 354 348 340 343 329 311 291 284 270 267 263 257 257 251 234 225 217 217 216 213 204 204 211 228 228 235 234 236 232 219 202 190 188 186 186 190 193 189 188 187 187 188
0 352 346 350 344 334 326 306 289 280 273 265 260 257 253 246 233 221 215 221 215 201 197 200 207 223 239 239 235 230 212 196 188 186 186 185 186 190 195 193 189 189 192
356 349 346 346 342 334 326 316 303 294 282 274 268 260 256 250 243 228 222 220 210 201 201 205 191 195 222 241 236 224 202 185 185 185 187 188 190 187 187 195 192 190 192
349 345 343 341 339 333 326 322 316 313 303 291 277 265 260 254 245 233 233 228 211 200 200 196 180 188 199 219 239 224 206 189 184 187 190 189 191 191 189 189 189 198 198
349 346 342 341 336 336 331 326 317 310 304 300 290 279 270 260 250 237 239 231 217 210 204 192 176 185 199 192 172 257 311 247 193 194 190 184 190 191 187 190 191 191 200
340 341 341 341 335 333 324 303 279 280 282 280 289 297 286 272 259 250 237 231 220 216 209 192 180 175 194 180 160 142 212 318 290 220 186 183 186 184 187 194 193 194 193
338 339 340 336 337 335 331 324 319 316 310 320 317 307 299 289 270 255 247 236 225 213 213 203 192 180 189 189 182 164 166 204 233 271 206 182 173 172 184 187 193 198 198
326 329 331 334 335 335 338 343 340 336 321 305 303 298 302 296 285 265 253 240 230 219 215 212 203 192 180 188 190 202 192 167 166 202 249 193 174 172 177 182 190 197 197
319 326 328 331 334 337 343 346 342 335 317 308 313 317 318 313 304 290 270 249 234 223 220 215 207 200 192 190 182 178 191 192 170 156 189 202 201 195 180 182 182 188 196
316 326 332 335 331 335 341 345 347 342 336 337 338 335 329 321 316 318 301 271 249 232 223 217 210 206 203 200 196 187 179 175 185 172 177 189 198 206 189 190 187 183 193